Date Time,Air Temp,Sky Temp,Clarity,Light Level,Rain Sensor,Readings
2010-08-08 00:00:07,25.8,-5.7,31.5,0.0,2.3,112
2010-08-08 00:05:07,25.9,-5.6,31.5,0.0,2.3,111
2010-08-08 00:10:07,25.8,-5.7,31.5,0.0,2.3,112
2010-08-08 00:15:07,25.8,-5.8,31.6,0.0,2.3,111
2010-08-08 00:20:07,25.8,-5.9,31.7,0.0,2.3,111
2010-08-08 00:25:07,25.8,-5.9,31.7,0.0,2.3,111
2010-08-08 00:30:07,25.8,-6.0,31.8,0.0,2.3,112
2010-08-08 00:35:07,25.8,-6.1,31.9,0.0,2.3,111
2010-08-08 00:40:07,25.8,-6.2,31.9,0.0,2.3,112
2010-08-08 00:45:07,25.7,-6.4,32.1,0.0,2.3,111
2010-08-08 00:50:07,25.6,-6.3,31.9,0.0,2.3,112
2010-08-08 00:55:07,25.5,-6.3,31.8,0.0,2.3,112
2010-08-08 01:00:07,25.5,-6.4,31.9,0.0,2.3,111
2010-08-08 01:05:07,25.4,-6.4,31.7,0.0,2.3,112
2010-08-08 01:10:07,25.3,-6.7,32.0,0.0,2.3,112
2010-08-08 01:15:07,25.3,-6.8,32.1,0.0,2.3,112
2010-08-08 01:20:07,25.3,-7.1,32.4,0.0,2.3,112
2010-08-08 01:25:07,25.3,-7.2,32.5,0.0,2.3,111
2010-08-08 01:30:07,25.3,-7.2,32.5,0.0,2.3,112
2010-08-08 01:35:07,25.2,-7.1,32.3,0.0,2.3,112
2010-08-08 01:40:07,25.1,-7.3,32.4,0.0,2.3,111
2010-08-08 01:45:07,25.1,-7.4,32.5,0.0,2.3,112
2010-08-08 01:50:07,25.0,-7.3,32.3,0.0,2.3,111
2010-08-08 01:55:07,24.9,-7.3,32.2,0.0,2.3,112
2010-08-08 02:00:07,24.8,-7.5,32.2,0.0,2.3,111
2010-08-08 02:05:07,24.7,-7.5,32.2,0.0,2.3,111
2010-08-08 02:10:07,24.7,-7.8,32.5,0.0,2.3,112
2010-08-08 02:15:07,24.7,-7.8,32.4,0.0,2.3,111
2010-08-08 02:20:07,24.6,-7.6,32.2,0.0,2.3,111
2010-08-08 02:25:07,24.6,-7.6,32.2,0.0,2.3,112
2010-08-08 02:30:07,24.5,-7.7,32.2,0.0,2.3,111
2010-08-08 02:35:07,24.5,-8.0,32.5,0.0,2.3,111
2010-08-08 02:40:07,24.5,-8.4,32.9,0.0,2.3,111
2010-08-08 02:45:07,24.5,-8.4,32.9,0.0,2.3,111
2010-08-08 02:50:07,24.5,-8.5,33.0,0.0,2.3,112
2010-08-08 02:55:07,24.4,-8.7,33.1,0.0,2.3,112
2010-08-08 03:00:07,24.3,-8.5,32.9,0.0,2.3,112
2010-08-08 03:05:07,24.3,-8.2,32.5,0.0,2.3,111
2010-08-08 03:10:07,23.9,-8.3,32.2,0.0,2.3,112
2010-08-08 03:15:07,24.4,-8.1,32.5,0.0,2.3,111
2010-08-08 03:20:07,24.4,-8.0,32.4,0.0,2.3,112
2010-08-08 03:25:07,24.4,-7.8,32.2,0.0,2.3,111
2010-08-08 03:30:07,24.4,-8.1,32.5,0.0,2.3,112
2010-08-08 03:35:07,24.4,-7.9,32.3,0.0,2.3,112
2010-08-08 03:40:07,24.4,-7.9,32.3,0.0,2.3,111
2010-08-08 03:45:07,24.3,-7.8,32.1,0.0,2.3,111
2010-08-08 03:50:07,24.2,-7.9,32.0,0.0,2.3,112
2010-08-08 03:55:07,24.1,-7.8,32.0,0.0,2.3,111
2010-08-08 04:00:07,24.1,-7.6,31.7,0.0,2.3,111
2010-08-08 04:05:07,24.1,-7.5,31.6,0.0,2.3,112
2010-08-08 04:10:07,24.1,-7.7,31.8,0.0,2.3,111
2010-08-08 04:15:07,24.1,-7.9,32.0,0.0,2.3,112
2010-08-08 04:20:07,24.1,-7.7,31.8,0.0,2.3,111
2010-08-08 04:25:07,24.1,-7.9,32.0,0.1,2.3,111
2010-08-08 04:30:07,24.0,-7.9,31.9,0.2,2.3,112
2010-08-08 04:35:07,23.9,-7.9,31.8,0.3,2.3,111
2010-08-08 04:40:07,23.8,-8.1,31.9,0.5,2.3,111
2010-08-08 04:45:07,23.3,-7.8,31.1,0.7,2.3,111
2010-08-08 04:50:07,23.8,-7.8,31.7,1.2,2.3,112
2010-08-08 04:55:07,23.8,-7.9,31.7,2.1,2.3,111
2010-08-08 05:00:07,23.8,-7.9,31.7,3.7,2.3,111
2010-08-08 05:05:07,23.8,-7.9,31.8,6.4,2.3,112
2010-08-08 05:10:07,23.8,-7.8,31.6,10.4,2.3,111
2010-08-08 05:15:07,23.8,-7.7,31.5,15.4,2.3,111
2010-08-08 05:20:07,23.7,-7.8,31.6,20.5,2.3,111
2010-08-08 05:25:07,23.8,-7.8,31.5,24.6,2.3,111
2010-08-08 05:30:07,23.9,-7.1,30.9,27.4,2.3,112
2010-08-08 05:35:07,23.9,-7.4,31.3,29.1,2.3,111
2010-08-08 05:40:07,24.0,-3.6,27.6,30.2,2.3,112
2010-08-08 05:45:07,24.0,-4.1,28.1,30.9,2.3,111
2010-08-08 05:50:07,24.1,-6.3,30.4,31.3,2.3,112
2010-08-08 05:55:07,24.1,-6.6,30.8,31.6,2.3,111
2010-08-08 06:00:07,24.1,-7.3,31.4,31.7,2.3,112
2010-08-08 06:05:07,24.1,-7.7,31.8,31.9,2.3,111
2010-08-08 06:10:07,24.1,-7.7,31.8,32.0,2.3,112
2010-08-08 06:15:07,24.1,-7.7,31.8,32.0,2.3,110
2010-08-08 06:20:07,24.1,-7.7,31.8,32.1,2.3,111
2010-08-08 06:25:07,24.2,-7.7,31.9,32.1,2.3,112
2010-08-08 06:30:07,24.4,-7.7,32.2,32.2,2.3,111
2010-08-08 06:35:07,24.6,-7.6,32.2,32.2,2.3,111
2010-08-08 06:40:07,24.8,-6.6,31.5,32.2,2.3,111
2010-08-08 06:45:07,25.0,-1.2,26.2,32.3,2.3,112
2010-08-08 06:50:07,24.3,5.0,19.4,32.3,2.3,111
2010-08-08 06:55:07,21.3,6.7,14.6,32.3,2.3,112
2010-08-08 07:00:07,21.3,1.9,19.4,32.4,2.3,111
2010-08-08 07:05:07,24.1,1.2,22.8,32.4,2.3,111
2010-08-08 07:10:07,25.1,2.1,23.0,32.4,2.3,111
2010-08-08 07:15:07,25.3,3.6,21.7,32.4,2.3,112
2010-08-08 07:20:07,23.2,6.0,17.2,32.4,2.3,111
2010-08-08 07:25:07,21.7,6.1,15.6,32.4,2.3,112
2010-08-08 07:30:07,22.5,-3.3,25.7,32.4,2.3,111
2010-08-08 07:35:07,24.8,-7.0,31.9,32.4,2.3,112
2010-08-08 07:40:07,25.7,-7.2,32.9,32.4,2.3,111
2010-08-08 07:45:07,26.1,-7.1,33.2,32.4,2.3,112
2010-08-08 07:50:07,26.3,-7.3,33.7,32.4,2.3,111
2010-08-08 07:55:07,26.5,-7.2,33.7,32.4,2.3,112
2010-08-08 08:00:07,26.7,-7.2,33.9,32.4,2.3,112
2010-08-08 08:05:07,26.4,-7.2,33.6,32.4,2.3,111
2010-08-08 08:10:07,26.6,-7.1,33.6,32.4,2.3,112
2010-08-08 08:15:07,27.4,-6.9,34.3,32.4,1.8,112
2010-08-08 08:20:07,27.5,-6.6,34.1,32.4,1.3,112
2010-08-08 08:25:07,27.5,-6.7,34.3,32.4,1.6,112
2010-08-08 08:30:07,27.4,-6.6,34.0,32.4,1.3,111
2010-08-08 08:35:07,27.4,-5.9,33.3,32.4,1.2,112
2010-08-08 08:40:07,27.4,-5.3,32.7,32.4,1.2,112
2010-08-08 08:45:07,27.5,-0.3,27.8,32.5,1.7,111
2010-08-08 08:50:07,27.5,-1.9,29.4,32.5,1.2,112
2010-08-08 08:55:07,27.5,-3.2,30.7,32.5,1.4,112
2010-08-08 09:00:07,27.6,-0.2,27.8,32.5,1.3,112
2010-08-08 09:05:07,27.9,4.9,23.0,32.5,1.2,111
2010-08-08 09:10:07,28.5,3.6,24.9,32.5,1.3,112
2010-08-08 09:15:07,28.6,0.5,28.1,32.5,1.5,111
2010-08-08 09:20:07,28.5,-1.1,29.6,32.5,1.5,112
2010-08-08 09:25:07,28.5,-1.6,30.0,32.5,1.4,112
2010-08-08 09:30:07,28.6,-0.9,29.5,32.5,1.5,111
2010-08-08 09:35:07,28.7,2.3,26.4,32.5,1.5,112
2010-08-08 09:40:07,28.4,7.0,21.4,32.5,1.5,111
2010-08-08 09:45:07,28.8,3.2,25.6,32.5,1.6,111
2010-08-08 09:50:07,28.9,6.8,22.1,32.5,1.6,112
2010-08-08 09:55:07,26.9,8.9,18.1,32.6,1.4,111
2010-08-08 10:00:07,25.4,8.7,16.7,32.5,1.0,112
2010-08-08 10:05:07,24.9,8.3,16.7,32.6,1.0,111
2010-08-08 10:10:07,26.1,10.3,15.8,32.6,1.3,112
2010-08-08 10:15:07,26.7,10.1,16.5,32.6,1.6,111
2010-08-08 10:20:07,26.9,11.9,15.0,32.6,1.7,111
2010-08-08 10:25:07,26.6,12.6,14.0,32.6,1.6,111
2010-08-08 10:30:07,26.2,12.6,13.6,32.6,1.5,112
2010-08-08 10:35:07,26.1,12.9,13.3,32.6,1.5,111
2010-08-08 10:40:07,27.0,8.4,18.6,32.6,1.7,112
2010-08-08 10:45:07,29.8,0.5,29.3,32.6,2.3,111
2010-08-08 10:50:07,31.1,2.8,28.3,32.6,2.5,111
2010-08-08 10:55:07,32.6,4.3,28.3,32.6,2.5,112
2010-08-08 11:00:07,33.7,6.9,26.8,32.6,2.4,111
2010-08-08 11:05:07,33.4,4.0,29.4,32.5,2.3,112
2010-08-08 11:10:07,32.8,8.3,24.4,32.6,2.4,111
2010-08-08 11:15:07,33.9,10.7,23.2,32.6,2.4,112
2010-08-08 11:20:07,34.7,10.2,24.5,32.6,2.4,111
2010-08-08 11:25:07,34.8,6.2,28.5,32.6,2.4,112
2010-08-08 11:30:07,34.4,3.3,31.1,32.6,2.3,111
2010-08-08 11:35:07,34.3,1.7,32.6,32.6,2.3,111
2010-08-08 11:40:07,33.8,2.8,31.1,32.6,2.4,112
2010-08-08 11:45:07,34.7,2.1,32.5,32.6,2.4,111
2010-08-08 11:50:07,35.7,0.5,35.2,32.6,2.4,111
2010-08-08 11:55:07,35.5,2.8,32.8,32.6,2.4,112
2010-08-08 12:00:07,36.3,1.9,34.4,32.6,2.4,111
2010-08-08 12:05:07,36.6,2.8,33.9,32.6,2.3,111
2010-08-08 12:10:07,38.5,2.8,35.8,32.6,2.3,112
2010-08-08 12:15:07,39.9,3.7,36.2,32.6,2.4,111
2010-08-08 12:20:07,39.9,4.5,35.4,32.6,2.3,111
2010-08-08 12:25:07,38.1,4.2,33.8,32.6,2.3,112
2010-08-08 12:30:07,38.1,7.5,30.6,32.6,2.3,112
2010-08-08 12:35:07,39.8,9.1,30.7,32.6,2.3,111
2010-08-08 12:40:07,40.0,5.8,34.3,32.6,2.0,112
2010-08-08 12:45:07,38.7,6.8,31.9,32.6,2.3,111
2010-08-08 12:50:07,37.2,4.7,32.5,32.6,2.3,112
2010-08-08 12:55:07,35.7,7.8,27.9,32.6,2.3,111
2010-08-08 13:00:07,34.8,8.8,26.0,32.6,2.3,111
2010-08-08 13:05:07,34.1,6.1,27.9,32.6,2.3,112
2010-08-08 13:10:07,33.6,4.0,29.6,32.6,2.3,111
2010-08-08 13:15:07,34.4,6.1,28.3,32.6,2.4,112
2010-08-08 13:20:07,36.9,8.7,28.2,32.6,2.4,111
2010-08-08 13:25:07,38.6,7.4,31.1,32.6,2.4,112
2010-08-08 13:30:07,38.1,9.3,28.8,32.6,2.4,111
2010-08-08 13:35:07,38.4,10.5,27.9,32.6,2.4,111
2010-08-08 13:40:07,37.7,10.7,27.0,32.6,2.3,112
2010-08-08 13:45:07,36.7,8.7,28.0,32.6,2.4,111
2010-08-08 13:50:07,36.4,8.3,28.1,32.6,2.4,112
2010-08-08 13:55:07,38.1,7.2,30.8,32.6,2.4,111
2010-08-08 14:00:07,39.6,8.8,30.8,32.6,2.3,112
2010-08-08 14:05:07,41.2,11.7,29.5,32.6,2.3,111
2010-08-08 14:10:07,41.4,8.9,32.5,32.6,2.4,112
2010-08-08 14:15:07,38.8,10.6,28.2,32.5,2.2,111
2010-08-08 14:20:07,36.8,8.1,28.7,32.6,2.3,112
2010-08-08 14:25:07,36.4,7.7,28.7,32.6,2.4,111
2010-08-08 14:30:07,37.8,6.8,31.0,32.6,2.4,112
2010-08-08 14:35:07,39.9,11.9,28.1,32.6,2.3,111
2010-08-08 14:40:07,42.8,11.8,30.9,32.6,2.4,112
2010-08-08 14:45:07,42.3,11.1,31.2,32.6,2.4,111
2010-08-08 14:50:07,40.2,9.9,30.3,32.6,2.4,111
2010-08-08 14:55:07,38.3,9.8,28.5,32.6,2.2,112
2010-08-08 15:00:07,37.7,10.4,27.3,32.6,2.3,112
2010-08-08 15:05:07,36.8,11.4,25.4,32.6,2.4,111
2010-08-08 15:10:07,35.9,9.4,26.5,32.5,2.3,112
2010-08-08 15:15:07,35.3,7.3,27.9,32.6,2.3,111
2010-08-08 15:20:07,35.0,6.7,28.3,32.6,2.4,111
2010-08-08 15:25:07,35.1,7.3,27.8,32.6,2.4,112
2010-08-08 15:30:07,35.8,7.7,28.2,32.6,2.4,111
2010-08-08 15:35:07,36.1,5.8,30.4,32.6,2.3,112
2010-08-08 15:40:07,35.0,4.7,30.2,32.6,2.3,112
2010-08-08 15:45:07,34.2,5.2,29.0,32.6,2.3,112
2010-08-08 15:50:07,34.0,7.1,26.8,32.6,2.3,111
2010-08-08 15:55:07,33.8,8.9,24.9,32.6,2.3,112
2010-08-08 16:00:07,33.5,10.4,23.1,32.6,2.3,112
2010-08-08 16:05:07,32.8,9.7,23.2,32.5,2.3,111
2010-08-08 16:10:07,33.3,9.8,23.5,32.5,2.3,111
2010-08-08 16:15:07,33.3,9.0,24.3,32.6,2.3,112
2010-08-08 16:20:07,33.3,8.7,24.6,32.5,2.3,112
2010-08-08 16:25:07,33.3,7.6,25.7,32.5,2.3,111
2010-08-08 16:30:07,33.2,7.4,25.8,32.6,2.3,112
2010-08-08 16:35:07,33.3,8.4,24.9,32.6,2.3,111
2010-08-08 16:40:07,34.1,9.5,24.6,32.6,2.4,112
2010-08-08 16:45:07,34.4,8.2,26.2,32.6,2.3,111
2010-08-08 16:50:07,34.4,7.5,26.9,32.6,2.3,112
2010-08-08 16:55:07,34.5,7.8,26.7,32.6,2.3,111
2010-08-08 17:00:07,34.4,4.9,29.5,32.6,2.3,111
2010-08-08 17:05:07,34.7,3.6,31.1,32.6,2.4,112
2010-08-08 17:10:07,35.1,2.6,32.5,32.6,2.3,111
2010-08-08 17:15:07,35.0,3.7,31.4,32.6,2.3,112
2010-08-08 17:20:07,35.1,5.5,29.6,32.6,2.3,111
2010-08-08 17:25:07,34.9,2.2,32.7,32.6,2.3,111
2010-08-08 17:30:07,34.6,2.4,32.2,32.6,2.4,112
2010-08-08 17:35:07,34.1,-0.3,34.3,32.6,2.3,112
2010-08-08 17:40:07,33.6,2.1,31.5,32.6,2.3,111
2010-08-08 17:45:07,33.9,1.4,32.5,32.6,2.3,111
2010-08-08 17:50:07,34.2,0.8,33.4,32.6,2.3,112
2010-08-08 17:55:07,34.1,0.3,33.9,32.6,2.3,111
2010-08-08 18:00:07,33.9,0.2,33.7,32.6,2.3,112
2010-08-08 18:05:07,33.7,-0.8,34.5,32.6,2.3,111
2010-08-08 18:10:07,33.4,-0.9,34.4,32.6,2.3,112
2010-08-08 18:15:07,33.2,-1.5,34.7,32.6,2.3,112
2010-08-08 18:20:07,33.0,-1.2,34.2,32.6,2.3,111
2010-08-08 18:25:07,32.8,-1.6,34.4,32.6,2.3,111
2010-08-08 18:30:07,32.7,-1.7,34.4,32.6,2.3,112
2010-08-08 18:35:07,32.7,-2.0,34.7,32.6,2.3,111
2010-08-08 18:40:07,32.4,-2.3,34.7,32.6,2.3,112
2010-08-08 18:45:07,32.2,-2.2,34.4,32.6,2.3,112
2010-08-08 18:50:07,31.9,-2.1,34.0,32.6,2.3,112
2010-08-08 18:55:07,31.7,-1.9,33.6,32.6,2.3,111
2010-08-08 19:00:07,31.5,-3.1,34.7,32.5,2.3,112
2010-08-08 19:05:07,30.9,-3.2,34.1,32.5,2.3,112
2010-08-08 19:10:07,30.2,-3.2,33.4,32.5,2.3,111
2010-08-08 19:15:07,29.8,-2.8,32.6,32.5,2.3,111
2010-08-08 19:20:07,29.7,-2.5,32.2,32.5,2.3,112
2010-08-08 19:25:07,29.8,-2.7,32.5,32.5,2.3,111
2010-08-08 19:30:07,29.7,-2.7,32.4,32.5,2.4,112
2010-08-08 19:35:07,29.6,-2.6,32.1,32.4,2.6,111
2010-08-08 19:40:07,29.4,-2.4,31.8,32.4,2.6,112
2010-08-08 19:45:07,29.2,-2.6,31.8,32.4,2.6,112
2010-08-08 19:50:07,28.8,-2.5,31.3,32.3,2.5,112
2010-08-08 19:55:07,28.6,-2.3,30.9,32.3,2.3,111
2010-08-08 20:00:07,28.3,-2.1,30.5,32.2,2.3,112
2010-08-08 20:05:07,28.1,-1.7,29.8,32.2,2.3,111
2010-08-08 20:10:07,27.9,-1.3,29.3,32.1,2.2,112
2010-08-08 20:15:07,27.8,-0.9,28.7,32.0,2.2,111
2010-08-08 20:20:07,27.7,-0.6,28.3,31.9,2.1,112
2010-08-08 20:25:07,27.6,-0.1,27.7,31.7,2.0,112
2010-08-08 20:30:07,27.0,0.5,26.5,31.4,1.9,112
2010-08-08 20:35:07,27.4,1.0,26.4,31.0,1.8,110
2010-08-08 20:40:07,27.3,1.8,25.5,30.3,1.8,112
2010-08-08 20:45:07,27.3,5.0,22.4,29.4,1.7,112
2010-08-08 20:50:07,26.3,7.5,18.7,27.9,1.5,111
2010-08-08 20:55:07,23.7,7.6,16.1,25.1,0.9,112
2010-08-08 21:00:07,22.9,7.7,15.1,21.4,0.8,111
2010-08-08 21:05:07,22.6,8.1,14.4,16.8,1.3,112
2010-08-08 21:10:07,22.5,7.8,14.6,12.0,1.2,111
2010-08-08 21:15:07,22.4,8.6,13.8,7.6,1.4,112
2010-08-08 21:20:07,22.4,9.5,12.9,4.4,1.8,111
2010-08-08 21:25:07,22.4,9.5,12.8,2.7,1.7,112
2010-08-08 21:30:07,22.4,8.5,13.9,1.6,1.5,111
2010-08-08 21:35:07,22.3,7.1,15.3,1.0,1.8,111
2010-08-08 21:40:07,22.3,6.9,15.4,0.6,2.2,111
2010-08-08 21:45:07,22.2,4.4,17.9,0.4,2.3,112
2010-08-08 21:50:07,23.8,0.6,23.2,0.3,2.3,112
2010-08-08 21:55:07,26.0,-1.7,27.7,0.2,1.5,111
2010-08-08 22:00:07,26.5,-1.2,27.8,0.1,1.3,112
2010-08-08 22:05:07,26.8,1.2,25.5,0.1,1.1,111
2010-08-08 22:10:07,26.8,2.0,24.8,0.1,1.1,111
2010-08-08 22:15:07,26.8,0.2,26.6,0.0,1.1,112
2010-08-08 22:20:07,26.7,-0.3,27.0,0.0,1.1,112
2010-08-08 22:25:07,26.7,-2.3,28.9,0.0,1.1,112
2010-08-08 22:30:07,26.6,-3.4,30.0,0.0,1.2,111
2010-08-08 22:35:07,26.6,-4.1,30.7,0.0,1.5,113
2010-08-08 22:40:07,26.5,-3.3,29.8,0.0,1.5,112
2010-08-08 22:45:07,26.5,-3.2,29.7,0.0,1.1,112
2010-08-08 22:50:07,26.5,-3.7,30.2,0.0,1.2,112
2010-08-08 22:55:07,26.3,-4.0,30.4,0.0,1.7,112
2010-08-08 23:00:07,26.2,-3.9,30.0,0.0,1.4,112
2010-08-08 23:05:07,26.1,-4.1,30.2,0.0,1.6,112
2010-08-08 23:10:07,26.1,-3.9,30.0,0.0,2.0,112
2010-08-08 23:15:07,26.2,-4.0,30.1,0.0,2.3,112
2010-08-08 23:20:07,26.2,-4.3,30.5,0.0,2.3,112
2010-08-08 23:25:07,26.3,-4.4,30.7,0.0,2.3,112
2010-08-08 23:30:07,26.4,-3.9,30.2,0.0,2.3,112
2010-08-08 23:35:07,26.3,-3.8,30.1,0.0,2.3,112
2010-08-08 23:40:07,26.2,-3.8,30.0,0.0,2.3,112
2010-08-08 23:45:07,26.2,-3.8,30.0,0.0,2.3,112
2010-08-08 23:50:07,26.2,-3.9,30.0,0.0,2.3,112
2010-08-08 23:55:07,26.2,-3.8,29.9,0.0,2.3,112
